Weather History for KHRT - December, 2013

Change the Weather History Date:

Tuesday, December 17, 2013

  Actual Average Record
Temperature  
Mean Temperature 49 °F -  
Max Temperature 64 °F 60 °F 77 °F (2001)
Min Temperature 34 °F 40 °F 12 °F (2007)
Degree Days  
Heating Degree Days 16    
Moisture  
Dew Point 35 °F    
Average Humidity 57    
Maximum Humidity 87    
Minimum Humidity 28    
Precipitation  
Precipitation 0.00 in - - ()
Sea Level Pressure  
Sea Level Pressure 30.27 in    
Wind  
Wind Speed 6 mph (WNW)    
Max Wind Speed 10 mph    
Max Gust Speed -    
Visibility 10 miles    
Events      
Averages and records for this station are not official NWS values.
T = Trace of Precipitation, MM = Missing Value Source: NWS Daily Summary

Daily Weather History Graph

Daily Weather History Graph

Search for Another Location

Airport or City:

Trip Planner

Search our weather history database for the weather conditions in past years. The results will help you decide how hot, cold, wet, or windy it might be!

Date:

Astronomy

Dec. 17, 2013 Rise Set
Actual Time 6:37 AM CST 4:48 PM CST
Civil Twilight 6:10 AM CST 5:15 PM CST
Nautical Twilight 5:40 AM CST 5:45 PM CST
Astronomical Twilight 5:11 AM CST 6:14 PM CST
Moon 5:23 PM CST (12/17) 6:37 AM CST (12/17)
Length of Visible Light 11h 04m
Length of Day
10h 11m
Full, 100% of the Moon is Illuminated
Dec 17
Full
Dec 25
Last Quarter
Jan 1
New
Jan 7
First Quarter
Jan 15
Full

Hourly Weather History & Observations

Time (CST) Temp. Windchill Dew Point Humidity Pressure Visibility Wind Dir Wind Speed Gust Speed Precip Events Conditions
12:58 AM 38.8 °F 34.6 °F 32.5 °F 78% 30.28 in 10.0 mi NNW 5.8 mph - N/A   Clear
1:58 AM 38.8 °F - 33.6 °F 82% 30.27 in 10.0 mi Calm Calm - N/A   Clear
2:58 AM 35.8 °F 31.9 °F 31.1 °F 83% 30.27 in 10.0 mi North 4.6 mph - N/A   Clear
3:58 AM 34.5 °F 28.6 °F 30.9 °F 87% 30.27 in 10.0 mi North 6.9 mph - N/A   Clear
4:58 AM 34.5 °F 30.4 °F 31.1 °F 87% 30.27 in 10.0 mi North 4.6 mph - N/A   Clear
5:58 AM 34.3 °F 27.7 °F 30.6 °F 86% 30.29 in 10.0 mi North 8.1 mph - N/A   Clear
6:58 AM 34.9 °F 28.3 °F 31.1 °F 86% 30.31 in 10.0 mi North 8.1 mph - N/A   Clear
7:58 AM 42.8 °F 39.3 °F 36.9 °F 80% 30.32 in 10.0 mi North 5.8 mph - N/A   Clear
8:58 AM 50.9 °F - 37.6 °F 60% 30.33 in 10.0 mi North 5.8 mph - 0.00 in   Light Drizzle
9:00 AM 51.8 °F - 37.4 °F 58% 30.32 in 10.0 mi North 6.9 mph - N/A   Clear
9:58 AM 58.3 °F - 36.5 °F 44% 30.33 in 10.0 mi NW 4.6 mph - 0.00 in   Light Drizzle
10:58 AM 61.7 °F - 32.4 °F 33% 30.31 in 10.0 mi WNW 8.1 mph - 0.00 in   Light Drizzle
11:12 AM 62.6 °F - 32.0 °F 32% 30.29 in 10.0 mi NNW 6.9 mph - N/A   Clear
11:58 AM 63.5 °F - 30.0 °F 28% 30.27 in 10.0 mi SW 6.9 mph - 0.00 in   Light Drizzle
12:05 PM 64.4 °F - 32.0 °F 30% 30.26 in 10.0 mi SW 10.4 mph - N/A   Clear
12:58 PM 63.1 °F - 33.6 °F 33% 30.25 in 10.0 mi West 10.4 mph - 0.00 in   Light Drizzle
1:19 PM 62.6 °F - 35.6 °F 37% 30.23 in 10.0 mi WSW 8.1 mph - N/A   Clear
1:58 PM 62.6 °F - 36.1 °F 37% 30.23 in 10.0 mi SW 9.2 mph - 0.00 in   Light Drizzle
2:18 PM 62.6 °F - 37.4 °F 39% 30.22 in 10.0 mi WSW 10.4 mph - N/A   Clear
2:58 PM 61.9 °F - 36.7 °F 39% 30.23 in 10.0 mi WSW 10.4 mph - 0.00 in   Light Drizzle
3:25 PM 60.8 °F - 37.4 °F 42% 30.22 in 10.0 mi West 9.2 mph - N/A   Clear
3:58 PM 60.1 °F - 38.8 °F 45% 30.23 in 10.0 mi WSW 10.4 mph - 0.00 in   Light Drizzle
4:02 PM 60.8 °F - 39.2 °F 45% 30.22 in 10.0 mi West 9.2 mph - N/A   Clear
4:58 PM 57.6 °F - 39.6 °F 51% 30.23 in 10.0 mi West 4.6 mph - 0.00 in   Clear
5:58 PM 55.0 °F - 38.8 °F 54% 30.25 in 10.0 mi WNW 5.8 mph - 0.00 in   Light Drizzle
6:11 PM 55.4 °F - 39.2 °F 54% 30.24 in 10.0 mi West 6.9 mph - N/A   Clear
6:58 PM 54.0 °F - 40.5 °F 60% 30.25 in 10.0 mi WSW 5.8 mph - 0.00 in   Clear
7:58 PM 52.7 °F - 37.0 °F 55% 30.26 in 10.0 mi WNW 8.1 mph - N/A   Clear
8:58 PM 51.8 °F - 37.6 °F 58% 30.27 in 10.0 mi WNW 6.9 mph - N/A   Clear
9:58 PM 49.5 °F - 37.6 °F 64% 30.29 in 10.0 mi NNW 5.8 mph - N/A   Clear
10:58 PM 49.3 °F - 36.9 °F 62% 30.29 in 10.0 mi NW 5.8 mph - N/A   Clear
11:58 PM 43.3 °F - 37.2 °F 79% 30.28 in 10.0 mi North 2.3 mph - N/A   Clear